SPARTAN (48964 NORAD) Tracking and Keplerian Element Data

This shows tracking and keplerian element data for the satellite.

Feedback or suggestion? Click here.




ElementValue
Catalog48964
NameSPARTAN
Epoch Orbit1680
Epoch Day287.91931581
Epoch Year2021
RAAN55.1456
Inclination97.5183
Eccentricity0.0007061
Argument of Perigee216.0994
Mean Anonmoly143.9761
Mean Motion15.13495861
Decay Rate1.411E-05
L11 48964U 21059CP 21287.91931581 .00001411 00000-0 82450-4 0 9995
L22 48964 97.5183 55.1456 0007061 216.0994 143.9761 15.13495861 16806

Live tracking and technical data element details for SPARTAN (NORAD 48964). SPARTAN can be tracked NOW for your location showing map with azimuth and elevation plus other details from your city location.

Track the satellite on the map from your city or location and see movement details for azimuth, elevation, latitude, longitude, range, height, and movement on the map or in text.







IsCatalogInMostPopularTable: catalog: 48964, numindb: 22
Update: records affected: 1



GetName: 48964 SPARTAN

Hit Count: updated at: Tue, 19 Oct 2021 09:17:25 GMT